{"data":{"norad_id":68344,"intl_designator":"2026-059Z","name":"STARLINK-36380","alt_names":[],"object_type":"PAYLOAD","status":"ACTIVE","operator":null,"country":"US","launch_date":"2026-03-22","launch_site_code":"AFETR","launch_vehicle":null,"mission":null,"orbit_class":"UNKNOWN","rcs_meters":null,"size_class":null,"mass_kg":null,"dimensions":null,"purposes":["comms"],"wikipedia_slug":null,"has_3d_model":false,"image_url":null,"decayed_at":null,"tle_current":{"epoch":"2026-05-25T00:19:18.712128Z","epoch_age_seconds":84447,"freshness":"FRESH","line1":"1 68344U 26059Z   26145.01341102  .00012770  00000+0  45382-3 0  9998","line2":"2 68344  53.1578 354.2882 0001193  89.6301 270.4836 15.29375776  9853","mean_motion":15.29375776,"eccentricity":0.0001193,"inclination_deg":53.1578,"raan_deg":354.2882,"arg_perigee_deg":89.6301,"mean_anomaly_deg":270.4836,"bstar":0.00045382,"rev_number":985,"period_min":94.156061747378,"perigee_km":476.85926026585,"apogee_km":478.49505752416,"semimajor_km":6855.814158895,"source":"CELESTRAK","updated_at":"2026-05-25T13:38:21.926500Z"}}}